Regional Weather Roundup
Issued by NWS

Home | Current Version | Previous Version | Graphics & Text | Print | Product List | Glossary On
Versions: 1 2 3 4 5 6 7 8 9 10 11 12 13 14 15 16 17 18 19 20 21 22 23 24 25 26 27
000
ASUS45 KSLC 191110
RWRUT

UTAH REGIONAL WEATHER ROUNDUP
NATIONAL WEATHER SERVICE SALT LAKE CITY UT
400 AM MST SUN NOV 19 2017

UTZ001>011-023>025-191200-

NORTHERN UTAH

CITY           SKY/WX    TMP DP  RH WIND       PRES   REMARKS
BRIGHAM CITY   MOCLDY    27  24  89 CALM      30.31F
HILL AFB       MOCLDY    26  17  69 E16       30.28F WCI  13
LOGAN          MOCLDY    26  21  81 CALM      30.31F
OGDEN          MOCLDY    27  19  72 S8        30.29F WCI  19
SALT LAKE CITY MOCLDY    30  24  78 S5        30.30F WCI  25
TOOELE VALLEY  MOCLDY    27  21  80 S6        30.30F WCI  20
WENDOVER       CLOUDY    24  19  81 CALM      30.30F
HEBER CITY       N/A     19  18  93 CALM      30.29F
WEST JORDAN    MOCLDY    29  24  81 S6        30.30F WCI  23

$$

UTZ011>015-024>027-191200-

CENTRAL/NORTHEAST UTAH

CITY           SKY/WX    TMP DP  RH WIND       PRES   REMARKS
PROVO AIRPORT  MOCLDY    26  19  74 S3        30.31F
MOAB/CANYONLAN PTCLDY    22   3  44 CALM      30.36F
DELTA          MOCLDY    18  14  86 CALM      30.31S
PRICE          CLEAR     20   7  57 N7        30.33F WCI  11
ROOSEVELT      CLOUDY    18  12  79 CALM      30.37F
VERNAL         CLOUDY    18   9  68 NW3       30.35F

$$

UTZ013>016-019>022-027-191200-

SOUTHERN UTAH

CITY           SKY/WX    TMP DP  RH WIND       PRES   REMARKS
BRYCE CANYON   PTCLDY     7   3  84 SW7       30.33F WCI  -5
CEDAR CITY     PTCLDY    17  16  95 CALM      30.27F
MILFORD        MOCLDY    15  11  83 SW5       30.29F WCI   8
ST GEORGE      MOSUNNY   36   9  32 SW3       30.29F
HANKSVILLE     MOCLDY    18   1  49 CALM      30.40F
BLANDING         N/A     20   6  52 NW6       30.41S WCI  13

$$

REGIONAL REPORTS     COLORADO/ARIZONA

CITY           SKY/WX    TMP DP  RH WIND       PRES   REMARKS
CRAIG, CO      CLOUDY    10   5  80 W3        30.34F
GRAND JUNCTION CLOUDY    20  15  81 E5        30.37F WCI  13
RIFLE, CO      CLOUDY    18  14  84 CALM      30.40F
MONTROSE, CO   CLOUDY    19  15  84 SE8       30.40F WCI   9
CORTEZ, CO     CLOUDY    11   6  81 E5        30.35F WCI   3
COLORADO CITY    N/A     41   7  24 NE13G21   30.29F
PAGE, AZ       PTCLDY    31   7  36 CALM      30.33F
GRAND CANYON   MOCLDY    28  -2  27 E6        30.28F WCI  22
KINGMAN, AZ    PTCLDY    31   5  33 E7        30.19F WCI  24
FLAGSTAFF, AZ  MOCLDY    12   0  58 CALM      30.29F

$$

REGIONAL REPORTS    NEVADA/IDAHO/WYOMING

CITY           SKY/WX    TMP DP  RH WIND       PRES   REMARKS
LAS VEGAS, NV  MOCLDY    43  12  28 S5        30.20F
ELY, NY        PTCLDY    15   4  61 S14       30.25F WCI   0
ELKO, NV       PTCLDY    22  17  81 NE5       30.24F WCI  16
POCATELLO, ID  CLOUDY    24  22  91 CALM      30.27F
BURLEY, ID     PTCLDY    25  21  85 SE3       30.23F
FORT BRIDGER,    N/A     18   8  65 SE6       30.28F WCI  10
EVANSTON, WY   CLOUDY    18  15  88 SE6       30.25F WCI  10
ROCK SPRINGS,  CLOUDY    14   8  77 NW3       30.25F

$$




USA.gov is the U.S. government's official web portal to all federal, state and local government web resources and services.